sat.trackr.live / text

‹ back to catalog

STARLINK-3256

NORAD 50202 · 2021-125AY

PAYLOAD ACTIVE UNKNOWN

§ Identity

Operator
Country
US
Launch date
2021-12-18
Launch site
AFWTR
Launch vehicle
Mass (kg)
RCS (m²)

Purposes: comms

External: N2YO · Heavens-Above · Gunter

§ Orbital elements

Epoch: 2026-09-20T04:13:20.932608Z

Period
94.01 min
Inclination
53.1593°
Eccentricity
0.0001104
Mean motion
15.31704659 rev/d
Perigee alt
470.0 km
Apogee alt
471.5 km
Semi-major
6,848.9 km
B*
4.8272e-5
RAAN
74.5820°
Arg perigee
97.3692°
Mean anomaly
262.7435°
Rev number
26,624

§ Raw data

STARLINK-32561 50202U 21125AY  26263.17593672  .00001133  00000+0  48272-4 0  99932 50202  53.1593  74.5820 0001104  97.3692 262.7435 15.31704659266245

JSON: /api/v1/satellites/50202 · /tle

For live sub-satellite position, see the globe view (requires WebGL).

§ Visibility from observer

Set your observer location to see the next 7 days of passes ≥ 10°. The values pass through the URL so the page stays shareable.

No JS? Fill the form by hand. The geolocation button needs JavaScript.